User: anonymous   Login
Location: Columbia
(38.9520°N, 92.3340°W)
Time: 16:19:33
(UTC-05:00)
Language:

Cosmos 2100 Rocket - Orbit

View from above orbital plane
View from above orbital plane
View from above satellite
View from above satellite

Ground track
Ground track

The orbit data is extracted from the following two-line orbital elements,

1 20805U 90083B   14296.94990216  .00000147  00000-0  13578-3 0  8502
2 20805 082.9391 058.9897 0030337 212.8604 286.9073 13.75731799210408
Epoch (UTC): 23 October 2014 22:47:51
Eccentricity: 0.0030337
inclination: 82.9391°
perigee height: 957 km
apogee height: 1001 km
right ascension of ascending node: 58.9897°
argument of perigee: 212.8604°
revolutions per day: 13.75731799
mean anomaly at epoch: 286.9073°
orbit number at epoch: 21040

The dashed part of the orbit path shows where the satellite is in the earth's shadow,  

DLR